owner,sensor,date,latitude,longitude,vertical_datum,sea_water_temperature,qcFlag 
DISL,ioos:station:DISL:KATA:1,2011-04-15T18:30:00Z,30.2583,-88.2131,0.0,22.22,2 
DISL,ioos:station:DISL:KATA:1,2011-04-15T19:00:00Z,30.2583,-88.2131,0.0,22.23,2 
DISL,ioos:station:DISL:KATA:1,2011-04-15T19:30:00Z,30.2583,-88.2131,0.0,22.24,2 
DISL,ioos:station:DISL:KATA:1,2011-04-15T20:00:00Z,30.2583,-88.2131,0.0,22.25,2 
DISL,ioos:station:DISL:KATA:1,2011-04-15T20:30:00Z,30.2583,-88.2131,0.0,22.26,2 
DISL,ioos:station:DISL:KATA:1,2011-04-15T21:00:00Z,30.2583,-88.2131,0.0,22.24,2 
DISL,ioos:station:DISL:KATA:1,2011-04-15T21:30:00Z,30.2583,-88.2131,0.0,22.24,2 
DISL,ioos:station:DISL:KATA:1,2011-04-15T22:00:00Z,30.2583,-88.2131,0.0,22.24,2 
DISL,ioos:station:DISL:KATA:1,2011-04-15T22:30:00Z,30.2583,-88.2131,0.0,22.24,2 
DISL,ioos:station:DISL:KATA:1,2011-04-15T23:00:00Z,30.2583,-88.2131,0.0,22.23,2 
DISL,ioos:station:DISL:KATA:1,2011-04-15T23:30:00Z,30.2583,-88.2131,0.0,22.22,2 
DISL,ioos:station:DISL:KATA:1,2011-04-16T00:00:00Z,30.2583,-88.2131,0.0,22.23,2 
DISL,ioos:station:DISL:KATA:1,2011-04-16T00:30:00Z,30.2583,-88.2131,0.0,22.3,2 
DISL,ioos:station:DISL:KATA:1,2011-04-16T01:00:00Z,30.2583,-88.2131,0.0,22.31,2 
DISL,ioos:station:DISL:KATA:1,2011-04-16T01:30:00Z,30.2583,-88.2131,0.0,22.31,2 
DISL,ioos:station:DISL:KATA:1,2011-04-16T02:00:00Z,30.2583,-88.2131,0.0,22.34,2 
DISL,ioos:station:DISL:KATA:1,2011-04-16T02:30:00Z,30.2583,-88.2131,0.0,22.31,2 
DISL,ioos:station:DISL:KATA:1,2011-04-16T03:00:00Z,30.2583,-88.2131,0.0,22.31,2 
DISL,ioos:station:DISL:KATA:1,2011-04-16T03:30:00Z,30.2583,-88.2131,0.0,22.31,2 
DISL,ioos:station:DISL:KATA:1,2011-04-16T04:00:00Z,30.2583,-88.2131,0.0,22.61,2 
DISL,ioos:station:DISL:KATA:1,2011-04-16T04:30:00Z,30.2583,-88.2131,0.0,22.66,2 
DISL,ioos:station:DISL:KATA:1,2011-04-16T05:00:00Z,30.2583,-88.2131,0.0,22.73,2 
DISL,ioos:station:DISL:KATA:1,2011-04-16T05:30:00Z,30.2583,-88.2131,0.0,22.78,2 
DISL,ioos:station:DISL:KATA:1,2011-04-16T06:00:00Z,30.2583,-88.2131,0.0,22.81,2 
DISL,ioos:station:DISL:KATA:1,2011-04-16T06:30:00Z,30.2583,-88.2131,0.0,22.83,2 
DISL,ioos:station:DISL:KATA:1,2011-04-16T07:00:00Z,30.2583,-88.2131,0.0,22.71,2 
DISL,ioos:station:DISL:KATA:1,2011-04-16T07:30:00Z,30.2583,-88.2131,0.0,22.7,2 
DISL,ioos:station:DISL:KATA:1,2011-04-16T08:00:00Z,30.2583,-88.2131,0.0,22.71,2 
DISL,ioos:station:DISL:KATA:1,2011-04-16T08:30:00Z,30.2583,-88.2131,0.0,22.67,2 
DISL,ioos:station:DISL:KATA:1,2011-04-16T09:00:00Z,30.2583,-88.2131,0.0,22.59,2 
DISL,ioos:station:DISL:KATA:1,2011-04-16T09:30:00Z,30.2583,-88.2131,0.0,22.38,2 
DISL,ioos:station:DISL:KATA:1,2011-04-16T10:00:00Z,30.2583,-88.2131,0.0,22.35,2 
DISL,ioos:station:DISL:KATA:1,2011-04-16T10:30:00Z,30.2583,-88.2131,0.0,22.32,2 
DISL,ioos:station:DISL:KATA:1,2011-04-16T11:00:00Z,30.2583,-88.2131,0.0,22.19,2 
DISL,ioos:station:DISL:KATA:1,2011-04-16T11:30:00Z,30.2583,-88.2131,0.0,22.16,2 
DISL,ioos:station:DISL:KATA:1,2011-04-16T12:00:00Z,30.2583,-88.2131,0.0,22.15,2 
DISL,ioos:station:DISL:KATA:1,2011-04-16T12:30:00Z,30.2583,-88.2131,0.0,22.21,2 
DISL,ioos:station:DISL:KATA:1,2011-04-16T13:00:00Z,30.2583,-88.2131,0.0,21.93,2 
DISL,ioos:station:DISL:KATA:1,2011-04-16T13:30:00Z,30.2583,-88.2131,0.0,21.91,2 
DISL,ioos:station:DISL:KATA:1,2011-04-16T14:00:00Z,30.2583,-88.2131,0.0,21.93,2 
DISL,ioos:station:DISL:KATA:1,2011-04-16T14:30:00Z,30.2583,-88.2131,0.0,21.86,2 
DISL,ioos:station:DISL:KATA:1,2011-04-16T15:00:00Z,30.2583,-88.2131,0.0,21.85,2 
DISL,ioos:station:DISL:KATA:1,2011-04-16T15:30:00Z,30.2583,-88.2131,0.0,21.82,2 
DISL,ioos:station:DISL:KATA:1,2011-04-16T16:00:00Z,30.2583,-88.2131,0.0,21.82,2 
DISL,ioos:station:DISL:KATA:1,2011-04-16T16:30:00Z,30.2583,-88.2131,0.0,21.83,2 
DISL,ioos:station:DISL:KATA:1,2011-04-16T17:00:00Z,30.2583,-88.2131,0.0,21.85,2 
DISL,ioos:station:DISL:KATA:1,2011-04-16T17:30:00Z,30.2583,-88.2131,0.0,21.88,2 
DISL,ioos:station:DISL:KATA:1,2011-04-16T18:00:00Z,30.2583,-88.2131,0.0,21.91,2 
DISL,ioos:station:DISL:KATA:1,2011-04-16T18:30:00Z,30.2583,-88.2131,0.0,21.96,2 
DISL,ioos:station:DISL:KATA:1,2011-04-16T19:00:00Z,30.2583,-88.2131,0.0,21.97,2 
DISL,ioos:station:DISL:KATA:1,2011-04-16T19:30:00Z,30.2583,-88.2131,0.0,21.98,2 
DISL,ioos:station:DISL:KATA:1,2011-04-16T20:00:00Z,30.2583,-88.2131,0.0,22.05,2 
DISL,ioos:station:DISL:KATA:1,2011-04-16T20:30:00Z,30.2583,-88.2131,0.0,22.16,2 
DISL,ioos:station:DISL:KATA:1,2011-04-16T21:00:00Z,30.2583,-88.2131,0.0,22.26,2 
DISL,ioos:station:DISL:KATA:1,2011-04-16T21:30:00Z,30.2583,-88.2131,0.0,22.25,2 
DISL,ioos:station:DISL:KATA:1,2011-04-16T22:00:00Z,30.2583,-88.2131,0.0,22.27,2 
DISL,ioos:station:DISL:KATA:1,2011-04-16T22:30:00Z,30.2583,-88.2131,0.0,22.33,2 
DISL,ioos:station:DISL:KATA:1,2011-04-16T23:00:00Z,30.2583,-88.2131,0.0,22.37,2 
DISL,ioos:station:DISL:KATA:1,2011-04-16T23:30:00Z,30.2583,-88.2131,0.0,22.21,2 
DISL,ioos:station:DISL:KATA:1,2011-04-17T00:00:00Z,30.2583,-88.2131,0.0,22.05,2 
DISL,ioos:station:DISL:KATA:1,2011-04-17T00:30:00Z,30.2583,-88.2131,0.0,22.09,2 
DISL,ioos:station:DISL:KATA:1,2011-04-17T01:00:00Z,30.2583,-88.2131,0.0,22.1,2 
DISL,ioos:station:DISL:KATA:1,2011-04-17T01:30:00Z,30.2583,-88.2131,0.0,22.13,2 
DISL,ioos:station:DISL:KATA:1,2011-04-17T02:00:00Z,30.2583,-88.2131,0.0,22.13,2 
DISL,ioos:station:DISL:KATA:1,2011-04-17T02:30:00Z,30.2583,-88.2131,0.0,22.1,2 
DISL,ioos:station:DISL:KATA:1,2011-04-17T03:00:00Z,30.2583,-88.2131,0.0,22.11,2 
DISL,ioos:station:DISL:KATA:1,2011-04-17T03:30:00Z,30.2583,-88.2131,0.0,21.98,2 
DISL,ioos:station:DISL:KATA:1,2011-04-17T04:00:00Z,30.2583,-88.2131,0.0,21.9,2 
DISL,ioos:station:DISL:KATA:1,2011-04-17T04:30:00Z,30.2583,-88.2131,0.0,21.88,2 
DISL,ioos:station:DISL:KATA:1,2011-04-17T05:00:00Z,30.2583,-88.2131,0.0,21.85,2 
DISL,ioos:station:DISL:KATA:1,2011-04-17T05:30:00Z,30.2583,-88.2131,0.0,21.82,2 
DISL,ioos:station:DISL:KATA:1,2011-04-17T06:00:00Z,30.2583,-88.2131,0.0,21.76,2 
DISL,ioos:station:DISL:KATA:1,2011-04-17T06:30:00Z,30.2583,-88.2131,0.0,21.67,2 
DISL,ioos:station:DISL:KATA:1,2011-04-17T07:00:00Z,30.2583,-88.2131,0.0,21.55,2 
DISL,ioos:station:DISL:KATA:1,2011-04-17T07:30:00Z,30.2583,-88.2131,0.0,21.49,2 
DISL,ioos:station:DISL:KATA:1,2011-04-17T08:00:00Z,30.2583,-88.2131,0.0,21.43,2 
DISL,ioos:station:DISL:KATA:1,2011-04-17T08:30:00Z,30.2583,-88.2131,0.0,21.43,2 
DISL,ioos:station:DISL:KATA:1,2011-04-17T09:00:00Z,30.2583,-88.2131,0.0,21.35,2 
DISL,ioos:station:DISL:KATA:1,2011-04-17T09:30:00Z,30.2583,-88.2131,0.0,21.39,2 
DISL,ioos:station:DISL:KATA:1,2011-04-17T10:00:00Z,30.2583,-88.2131,0.0,21.37,2 
DISL,ioos:station:DISL:KATA:1,2011-04-17T10:30:00Z,30.2583,-88.2131,0.0,21.06,2 
DISL,ioos:station:DISL:KATA:1,2011-04-17T11:00:00Z,30.2583,-88.2131,0.0,20.89,2 
DISL,ioos:station:DISL:KATA:1,2011-04-17T11:30:00Z,30.2583,-88.2131,0.0,20.85,2 
DISL,ioos:station:DISL:KATA:1,2011-04-17T12:00:00Z,30.2583,-88.2131,0.0,20.82,2 
DISL,ioos:station:DISL:KATA:1,2011-04-17T12:30:00Z,30.2583,-88.2131,0.0,20.74,2 
DISL,ioos:station:DISL:KATA:1,2011-04-17T13:00:00Z,30.2583,-88.2131,0.0,20.78,2 
DISL,ioos:station:DISL:KATA:1,2011-04-17T13:30:00Z,30.2583,-88.2131,0.0,20.9,2 
DISL,ioos:station:DISL:KATA:1,2011-04-17T14:00:00Z,30.2583,-88.2131,0.0,21.01,2 
DISL,ioos:station:DISL:KATA:1,2011-04-17T14:30:00Z,30.2583,-88.2131,0.0,21.06,2 
DISL,ioos:station:DISL:KATA:1,2011-04-17T15:00:00Z,30.2583,-88.2131,0.0,21.01,2 
DISL,ioos:station:DISL:KATA:1,2011-04-17T15:30:00Z,30.2583,-88.2131,0.0,20.92,2 
DISL,ioos:station:DISL:KATA:1,2011-04-17T16:00:00Z,30.2583,-88.2131,0.0,20.77,2 
DISL,ioos:station:DISL:KATA:1,2011-04-17T16:30:00Z,30.2583,-88.2131,0.0,20.64,2 
DISL,ioos:station:DISL:KATA:1,2011-04-17T17:00:00Z,30.2583,-88.2131,0.0,20.56,2 
DISL,ioos:station:DISL:KATA:1,2011-04-17T17:30:00Z,30.2583,-88.2131,0.0,20.85,2 
DISL,ioos:station:DISL:KATA:1,2011-04-17T18:00:00Z,30.2583,-88.2131,0.0,20.94,2 
DISL,ioos:station:DISL:KATA:1,2011-04-17T18:30:00Z,30.2583,-88.2131,0.0,20.93,2 
DISL,ioos:station:DISL:KATA:1,2011-04-17T19:00:00Z,30.2583,-88.2131,0.0,20.94,2 
DISL,ioos:station:DISL:KATA:1,2011-04-17T19:30:00Z,30.2583,-88.2131,0.0,20.94,2 
DISL,ioos:station:DISL:KATA:1,2011-04-17T20:00:00Z,30.2583,-88.2131,0.0,20.94,2 
DISL,ioos:station:DISL:KATA:1,2011-04-17T20:30:00Z,30.2583,-88.2131,0.0,20.94,2 
DISL,ioos:station:DISL:KATA:1,2011-04-17T21:00:00Z,30.2583,-88.2131,0.0,20.91,2 
DISL,ioos:station:DISL:KATA:1,2011-04-17T21:30:00Z,30.2583,-88.2131,0.0,20.8,2 
DISL,ioos:station:DISL:KATA:1,2011-04-17T22:00:00Z,30.2583,-88.2131,0.0,20.79,2 
DISL,ioos:station:DISL:KATA:1,2011-04-17T22:30:00Z,30.2583,-88.2131,0.0,20.85,2 
DISL,ioos:station:DISL:KATA:1,2011-04-17T23:00:00Z,30.2583,-88.2131,0.0,20.86,2 
DISL,ioos:station:DISL:KATA:1,2011-04-17T23:30:00Z,30.2583,-88.2131,0.0,20.85,2 
DISL,ioos:station:DISL:KATA:1,2011-04-18T00:00:00Z,30.2583,-88.2131,0.0,20.85,2 
DISL,ioos:station:DISL:KATA:1,2011-04-18T00:30:00Z,30.2583,-88.2131,0.0,20.9,2 
DISL,ioos:station:DISL:KATA:1,2011-04-18T01:00:00Z,30.2583,-88.2131,0.0,20.95,2 
DISL,ioos:station:DISL:KATA:1,2011-04-18T01:30:00Z,30.2583,-88.2131,0.0,21.01,2 
DISL,ioos:station:DISL:KATA:1,2011-04-18T02:00:00Z,30.2583,-88.2131,0.0,21.03,2 
DISL,ioos:station:DISL:KATA:1,2011-04-18T02:30:00Z,30.2583,-88.2131,0.0,21.01,2 
DISL,ioos:station:DISL:KATA:1,2011-04-18T03:00:00Z,30.2583,-88.2131,0.0,20.99,2 
DISL,ioos:station:DISL:KATA:1,2011-04-18T03:30:00Z,30.2583,-88.2131,0.0,20.89,2 
DISL,ioos:station:DISL:KATA:1,2011-04-18T04:00:00Z,30.2583,-88.2131,0.0,20.85,2 
DISL,ioos:station:DISL:KATA:1,2011-04-18T04:30:00Z,30.2583,-88.2131,0.0,20.88,2 
DISL,ioos:station:DISL:KATA:1,2011-04-18T05:00:00Z,30.2583,-88.2131,0.0,20.93,2 
DISL,ioos:station:DISL:KATA:1,2011-04-18T05:30:00Z,30.2583,-88.2131,0.0,20.97,2 
DISL,ioos:station:DISL:KATA:1,2011-04-18T06:00:00Z,30.2583,-88.2131,0.0,21.04,2 
DISL,ioos:station:DISL:KATA:1,2011-04-18T06:30:00Z,30.2583,-88.2131,0.0,21.04,2 
DISL,ioos:station:DISL:KATA:1,2011-04-18T07:00:00Z,30.2583,-88.2131,0.0,21.05,2 
DISL,ioos:station:DISL:KATA:1,2011-04-18T07:30:00Z,30.2583,-88.2131,0.0,21.05,2 
DISL,ioos:station:DISL:KATA:1,2011-04-18T08:00:00Z,30.2583,-88.2131,0.0,21.04,2 
DISL,ioos:station:DISL:KATA:1,2011-04-18T08:30:00Z,30.2583,-88.2131,0.0,21.02,2 
DISL,ioos:station:DISL:KATA:1,2011-04-18T09:00:00Z,30.2583,-88.2131,0.0,21.03,2 
DISL,ioos:station:DISL:KATA:1,2011-04-18T09:30:00Z,30.2583,-88.2131,0.0,21.0,2 
DISL,ioos:station:DISL:KATA:1,2011-04-18T10:00:00Z,30.2583,-88.2131,0.0,20.99,2 
DISL,ioos:station:DISL:KATA:1,2011-04-18T10:30:00Z,30.2583,-88.2131,0.0,20.86,2 
DISL,ioos:station:DISL:KATA:1,2011-04-18T11:00:00Z,30.2583,-88.2131,0.0,20.85,2 
DISL,ioos:station:DISL:KATA:1,2011-04-18T11:30:00Z,30.2583,-88.2131,0.0,20.87,2 
DISL,ioos:station:DISL:KATA:1,2011-04-18T12:00:00Z,30.2583,-88.2131,0.0,20.84,2 
DISL,ioos:station:DISL:KATA:1,2011-04-18T12:30:00Z,30.2583,-88.2131,0.0,20.72,2 
DISL,ioos:station:DISL:KATA:1,2011-04-18T13:00:00Z,30.2583,-88.2131,0.0,20.69,2 
DISL,ioos:station:DISL:KATA:1,2011-04-18T13:30:00Z,30.2583,-88.2131,0.0,20.56,2 
DISL,ioos:station:DISL:KATA:1,2011-04-18T14:00:00Z,30.2583,-88.2131,0.0,20.43,2 
DISL,ioos:station:DISL:KATA:1,2011-04-18T14:30:00Z,30.2583,-88.2131,0.0,20.31,2 
DISL,ioos:station:DISL:KATA:1,2011-04-18T15:00:00Z,30.2583,-88.2131,0.0,20.31,2 
DISL,ioos:station:DISL:KATA:1,2011-04-18T15:30:00Z,30.2583,-88.2131,0.0,20.35,2 
DISL,ioos:station:DISL:KATA:1,2011-04-18T16:00:00Z,30.2583,-88.2131,0.0,20.42,2 
DISL,ioos:station:DISL:KATA:1,2011-04-18T16:30:00Z,30.2583,-88.2131,0.0,20.52,2 
DISL,ioos:station:DISL:KATA:1,2011-04-18T17:00:00Z,30.2583,-88.2131,0.0,20.49,2 
DISL,ioos:station:DISL:KATA:1,2011-04-18T17:30:00Z,30.2583,-88.2131,0.0,20.67,2 
DISL,ioos:station:DISL:KATA:1,2011-04-18T18:00:00Z,30.2583,-88.2131,0.0,20.73,2 
DISL,ioos:station:DISL:KATA:1,2011-04-18T18:30:00Z,30.2583,-88.2131,0.0,20.75,2 
DISL,ioos:station:DISL:KATA:1,2011-04-18T19:00:00Z,30.2583,-88.2131,0.0,20.73,2 
DISL,ioos:station:DISL:KATA:1,2011-04-18T19:30:00Z,30.2583,-88.2131,0.0,20.78,2 
DISL,ioos:station:DISL:KATA:1,2011-04-18T20:00:00Z,30.2583,-88.2131,0.0,20.89,2 
DISL,ioos:station:DISL:KATA:1,2011-04-18T20:30:00Z,30.2583,-88.2131,0.0,21.02,2 
DISL,ioos:station:DISL:KATA:1,2011-04-18T21:00:00Z,30.2583,-88.2131,0.0,21.15,2 
DISL,ioos:station:DISL:KATA:1,2011-04-18T21:30:00Z,30.2583,-88.2131,0.0,21.34,2 
DISL,ioos:station:DISL:KATA:1,2011-04-18T22:00:00Z,30.2583,-88.2131,0.0,21.62,2 
DISL,ioos:station:DISL:KATA:1,2011-04-18T22:30:00Z,30.2583,-88.2131,0.0,21.76,2 
DISL,ioos:station:DISL:KATA:1,2011-04-18T23:00:00Z,30.2583,-88.2131,0.0,21.86,2 
DISL,ioos:station:DISL:KATA:1,2011-04-18T23:30:00Z,30.2583,-88.2131,0.0,21.93,2 
DISL,ioos:station:DISL:KATA:1,2011-04-19T00:00:00Z,30.2583,-88.2131,0.0,21.96,2 
DISL,ioos:station:DISL:KATA:1,2011-04-19T00:30:00Z,30.2583,-88.2131,0.0,21.97,2 
DISL,ioos:station:DISL:KATA:1,2011-04-19T01:00:00Z,30.2583,-88.2131,0.0,21.18,2 
DISL,ioos:station:DISL:KATA:1,2011-04-19T01:30:00Z,30.2583,-88.2131,0.0,21.17,2 
DISL,ioos:station:DISL:KATA:1,2011-04-19T02:00:00Z,30.2583,-88.2131,0.0,21.21,2 
DISL,ioos:station:DISL:KATA:1,2011-04-19T02:30:00Z,30.2583,-88.2131,0.0,21.2,2 
DISL,ioos:station:DISL:KATA:1,2011-04-19T03:00:00Z,30.2583,-88.2131,0.0,21.18,2 
DISL,ioos:station:DISL:KATA:1,2011-04-19T03:30:00Z,30.2583,-88.2131,0.0,21.11,2 
DISL,ioos:station:DISL:KATA:1,2011-04-19T04:00:00Z,30.2583,-88.2131,0.0,21.09,2 
DISL,ioos:station:DISL:KATA:1,2011-04-19T04:30:00Z,30.2583,-88.2131,0.0,21.07,2 
DISL,ioos:station:DISL:KATA:1,2011-04-19T05:00:00Z,30.2583,-88.2131,0.0,21.01,2 
DISL,ioos:station:DISL:KATA:1,2011-04-19T05:30:00Z,30.2583,-88.2131,0.0,20.97,2 
DISL,ioos:station:DISL:KATA:1,2011-04-19T06:00:00Z,30.2583,-88.2131,0.0,20.97,2 
DISL,ioos:station:DISL:KATA:1,2011-04-19T06:30:00Z,30.2583,-88.2131,0.0,20.95,2 
DISL,ioos:station:DISL:KATA:1,2011-04-19T07:00:00Z,30.2583,-88.2131,0.0,20.91,2 
DISL,ioos:station:DISL:KATA:1,2011-04-19T07:30:00Z,30.2583,-88.2131,0.0,20.91,2 
DISL,ioos:station:DISL:KATA:1,2011-04-19T08:00:00Z,30.2583,-88.2131,0.0,20.9,2 
DISL,ioos:station:DISL:KATA:1,2011-04-19T08:30:00Z,30.2583,-88.2131,0.0,20.9,2 
DISL,ioos:station:DISL:KATA:1,2011-04-19T09:00:00Z,30.2583,-88.2131,0.0,20.88,2 
DISL,ioos:station:DISL:KATA:1,2011-04-19T09:30:00Z,30.2583,-88.2131,0.0,20.88,2 
DISL,ioos:station:DISL:KATA:1,2011-04-19T10:00:00Z,30.2583,-88.2131,0.0,20.88,2 
DISL,ioos:station:DISL:KATA:1,2011-04-19T10:30:00Z,30.2583,-88.2131,0.0,20.89,2 
DISL,ioos:station:DISL:KATA:1,2011-04-19T11:00:00Z,30.2583,-88.2131,0.0,20.88,2 
DISL,ioos:station:DISL:KATA:1,2011-04-19T11:30:00Z,30.2583,-88.2131,0.0,20.83,2 
DISL,ioos:station:DISL:KATA:1,2011-04-19T12:00:00Z,30.2583,-88.2131,0.0,20.81,2 
DISL,ioos:station:DISL:KATA:1,2011-04-19T12:30:00Z,30.2583,-88.2131,0.0,20.78,2 
DISL,ioos:station:DISL:KATA:1,2011-04-19T13:00:00Z,30.2583,-88.2131,0.0,20.78,2 
DISL,ioos:station:DISL:KATA:1,2011-04-19T13:30:00Z,30.2583,-88.2131,0.0,20.79,2 
DISL,ioos:station:DISL:KATA:1,2011-04-19T14:00:00Z,30.2583,-88.2131,0.0,20.82,2 
DISL,ioos:station:DISL:KATA:1,2011-04-19T14:30:00Z,30.2583,-88.2131,0.0,20.82,2 
DISL,ioos:station:DISL:KATA:1,2011-04-19T15:00:00Z,30.2583,-88.2131,0.0,20.85,2 
DISL,ioos:station:DISL:KATA:1,2011-04-19T15:30:00Z,30.2583,-88.2131,0.0,20.87,2 
DISL,ioos:station:DISL:KATA:1,2011-04-19T16:00:00Z,30.2583,-88.2131,0.0,20.9,2 
DISL,ioos:station:DISL:KATA:1,2011-04-19T16:30:00Z,30.2583,-88.2131,0.0,20.92,2 
DISL,ioos:station:DISL:KATA:1,2011-04-19T17:00:00Z,30.2583,-88.2131,0.0,20.93,2 
DISL,ioos:station:DISL:KATA:1,2011-04-19T17:30:00Z,30.2583,-88.2131,0.0,20.98,2 
DISL,ioos:station:DISL:KATA:1,2011-04-19T18:00:00Z,30.2583,-88.2131,0.0,20.94,2 
DISL,ioos:station:DISL:KATA:1,2011-04-19T18:30:00Z,30.2583,-88.2131,0.0,20.94,2 
DISL,ioos:station:DISL:KATA:1,2011-04-19T19:00:00Z,30.2583,-88.2131,0.0,20.94,2 
DISL,ioos:station:DISL:KATA:1,2011-04-19T19:30:00Z,30.2583,-88.2131,0.0,20.95,2 
DISL,ioos:station:DISL:KATA:1,2011-04-19T20:00:00Z,30.2583,-88.2131,0.0,20.95,2 
DISL,ioos:station:DISL:KATA:1,2011-04-19T20:30:00Z,30.2583,-88.2131,0.0,20.97,2 
DISL,ioos:station:DISL:KATA:1,2011-04-19T21:00:00Z,30.2583,-88.2131,0.0,20.99,2 
DISL,ioos:station:DISL:KATA:1,2011-04-19T21:30:00Z,30.2583,-88.2131,0.0,21.01,2 
DISL,ioos:station:DISL:KATA:1,2011-04-19T22:00:00Z,30.2583,-88.2131,0.0,21.02,2 
DISL,ioos:station:DISL:KATA:1,2011-04-19T22:30:00Z,30.2583,-88.2131,0.0,21.11,2 
DISL,ioos:station:DISL:KATA:1,2011-04-19T23:00:00Z,30.2583,-88.2131,0.0,21.15,2 
DISL,ioos:station:DISL:KATA:1,2011-04-19T23:30:00Z,30.2583,-88.2131,0.0,21.17,2 
DISL,ioos:station:DISL:KATA:1,2011-04-20T00:00:00Z,30.2583,-88.2131,0.0,21.16,2 
DISL,ioos:station:DISL:KATA:1,2011-04-20T00:30:00Z,30.2583,-88.2131,0.0,21.14,2 
DISL,ioos:station:DISL:KATA:1,2011-04-20T01:00:00Z,30.2583,-88.2131,0.0,21.14,2 
DISL,ioos:station:DISL:KATA:1,2011-04-20T01:30:00Z,30.2583,-88.2131,0.0,21.12,2 
DISL,ioos:station:DISL:KATA:1,2011-04-20T02:00:00Z,30.2583,-88.2131,0.0,21.12,2 
DISL,ioos:station:DISL:KATA:1,2011-04-20T02:30:00Z,30.2583,-88.2131,0.0,21.12,2 
DISL,ioos:station:DISL:KATA:1,2011-04-20T03:00:00Z,30.2583,-88.2131,0.0,21.12,2 
DISL,ioos:station:DISL:KATA:1,2011-04-20T03:30:00Z,30.2583,-88.2131,0.0,21.13,2 
DISL,ioos:station:DISL:KATA:1,2011-04-20T04:00:00Z,30.2583,-88.2131,0.0,21.16,2 
DISL,ioos:station:DISL:KATA:1,2011-04-20T04:30:00Z,30.2583,-88.2131,0.0,21.13,2 
DISL,ioos:station:DISL:KATA:1,2011-04-20T05:00:00Z,30.2583,-88.2131,0.0,21.13,2 
DISL,ioos:station:DISL:KATA:1,2011-04-20T05:30:00Z,30.2583,-88.2131,0.0,21.13,2 
DISL,ioos:station:DISL:KATA:1,2011-04-20T06:00:00Z,30.2583,-88.2131,0.0,21.16,2 
DISL,ioos:station:DISL:KATA:1,2011-04-20T06:30:00Z,30.2583,-88.2131,0.0,21.19,2 
DISL,ioos:station:DISL:KATA:1,2011-04-20T07:00:00Z,30.2583,-88.2131,0.0,21.25,2 
DISL,ioos:station:DISL:KATA:1,2011-04-20T07:30:00Z,30.2583,-88.2131,0.0,21.33,2 
DISL,ioos:station:DISL:KATA:1,2011-04-20T08:00:00Z,30.2583,-88.2131,0.0,21.42,2 
DISL,ioos:station:DISL:KATA:1,2011-04-20T08:30:00Z,30.2583,-88.2131,0.0,21.52,2 
DISL,ioos:station:DISL:KATA:1,2011-04-20T09:00:00Z,30.2583,-88.2131,0.0,21.68,2 
DISL,ioos:station:DISL:KATA:1,2011-04-20T09:30:00Z,30.2583,-88.2131,0.0,21.78,2 
DISL,ioos:station:DISL:KATA:1,2011-04-20T10:00:00Z,30.2583,-88.2131,0.0,21.84,2 
DISL,ioos:station:DISL:KATA:1,2011-04-20T10:30:00Z,30.2583,-88.2131,0.0,21.88,2 
DISL,ioos:station:DISL:KATA:1,2011-04-20T11:00:00Z,30.2583,-88.2131,0.0,21.95,2 
DISL,ioos:station:DISL:KATA:1,2011-04-20T11:30:00Z,30.2583,-88.2131,0.0,21.94,2 
DISL,ioos:station:DISL:KATA:1,2011-04-20T12:00:00Z,30.2583,-88.2131,0.0,21.95,2 
DISL,ioos:station:DISL:KATA:1,2011-04-20T12:30:00Z,30.2583,-88.2131,0.0,21.99,2 
DISL,ioos:station:DISL:KATA:1,2011-04-20T13:00:00Z,30.2583,-88.2131,0.0,22.0,2 
DISL,ioos:station:DISL:KATA:1,2011-04-20T13:30:00Z,30.2583,-88.2131,0.0,22.04,2 
DISL,ioos:station:DISL:KATA:1,2011-04-20T14:00:00Z,30.2583,-88.2131,0.0,22.1,2 
DISL,ioos:station:DISL:KATA:1,2011-04-20T14:30:00Z,30.2583,-88.2131,0.0,22.11,2 
DISL,ioos:station:DISL:KATA:1,2011-04-20T15:00:00Z,30.2583,-88.2131,0.0,22.13,2 
DISL,ioos:station:DISL:KATA:1,2011-04-20T15:30:00Z,30.2583,-88.2131,0.0,22.17,2 
DISL,ioos:station:DISL:KATA:1,2011-04-20T16:00:00Z,30.2583,-88.2131,0.0,22.22,2 
DISL,ioos:station:DISL:KATA:1,2011-04-20T16:30:00Z,30.2583,-88.2131,0.0,22.23,2 
DISL,ioos:station:DISL:KATA:1,2011-04-20T17:00:00Z,30.2583,-88.2131,0.0,22.25,2 
DISL,ioos:station:DISL:KATA:1,2011-04-20T17:30:00Z,30.2583,-88.2131,0.0,22.24,2 
DISL,ioos:station:DISL:KATA:1,2011-04-20T18:00:00Z,30.2583,-88.2131,0.0,22.25,2 
DISL,ioos:station:DISL:KATA:1,2011-04-20T18:30:00Z,30.2583,-88.2131,0.0,22.24,2 
DISL,ioos:station:DISL:KATA:1,2011-04-20T19:00:00Z,30.2583,-88.2131,0.0,22.22,2 
DISL,ioos:station:DISL:KATA:1,2011-04-20T19:30:00Z,30.2583,-88.2131,0.0,22.18,2 
DISL,ioos:station:DISL:KATA:1,2011-04-20T20:00:00Z,30.2583,-88.2131,0.0,22.18,2 
DISL,ioos:station:DISL:KATA:1,2011-04-20T20:30:00Z,30.2583,-88.2131,0.0,22.18,2 
DISL,ioos:station:DISL:KATA:1,2011-04-20T21:00:00Z,30.2583,-88.2131,0.0,22.18,2 
DISL,ioos:station:DISL:KATA:1,2011-04-20T21:30:00Z,30.2583,-88.2131,0.0,22.17,2 
DISL,ioos:station:DISL:KATA:1,2011-04-20T22:00:00Z,30.2583,-88.2131,0.0,22.09,2 
DISL,ioos:station:DISL:KATA:1,2011-04-20T22:30:00Z,30.2583,-88.2131,0.0,22.09,2 
DISL,ioos:station:DISL:KATA:1,2011-04-20T23:00:00Z,30.2583,-88.2131,0.0,22.12,2 
DISL,ioos:station:DISL:KATA:1,2011-04-20T23:30:00Z,30.2583,-88.2131,0.0,22.11,2 
DISL,ioos:station:DISL:KATA:1,2011-04-21T00:00:00Z,30.2583,-88.2131,0.0,22.1,2 
DISL,ioos:station:DISL:KATA:1,2011-04-21T00:30:00Z,30.2583,-88.2131,0.0,22.14,2 
DISL,ioos:station:DISL:KATA:1,2011-04-21T01:00:00Z,30.2583,-88.2131,0.0,22.1,2 
DISL,ioos:station:DISL:KATA:1,2011-04-21T01:30:00Z,30.2583,-88.2131,0.0,22.08,2 
DISL,ioos:station:DISL:KATA:1,2011-04-21T02:00:00Z,30.2583,-88.2131,0.0,22.08,2 
DISL,ioos:station:DISL:KATA:1,2011-04-21T02:30:00Z,30.2583,-88.2131,0.0,22.07,2 
DISL,ioos:station:DISL:KATA:1,2011-04-21T03:00:00Z,30.2583,-88.2131,0.0,22.07,2 
DISL,ioos:station:DISL:KATA:1,2011-04-21T03:30:00Z,30.2583,-88.2131,0.0,22.09,2 
DISL,ioos:station:DISL:KATA:1,2011-04-21T04:00:00Z,30.2583,-88.2131,0.0,22.12,2 
DISL,ioos:station:DISL:KATA:1,2011-04-21T04:30:00Z,30.2583,-88.2131,0.0,22.11,2 
DISL,ioos:station:DISL:KATA:1,2011-04-21T05:00:00Z,30.2583,-88.2131,0.0,22.14,2 
DISL,ioos:station:DISL:KATA:1,2011-04-21T05:30:00Z,30.2583,-88.2131,0.0,22.16,2 
DISL,ioos:station:DISL:KATA:1,2011-04-21T06:00:00Z,30.2583,-88.2131,0.0,22.15,2 
DISL,ioos:station:DISL:KATA:1,2011-04-21T06:30:00Z,30.2583,-88.2131,0.0,22.17,2 
DISL,ioos:station:DISL:KATA:1,2011-04-21T07:00:00Z,30.2583,-88.2131,0.0,22.17,2 
DISL,ioos:station:DISL:KATA:1,2011-04-21T07:30:00Z,30.2583,-88.2131,0.0,22.15,2 
DISL,ioos:station:DISL:KATA:1,2011-04-21T08:00:00Z,30.2583,-88.2131,0.0,22.16,2 
DISL,ioos:station:DISL:KATA:1,2011-04-21T08:30:00Z,30.2583,-88.2131,0.0,22.2,2 
DISL,ioos:station:DISL:KATA:1,2011-04-21T09:00:00Z,30.2583,-88.2131,0.0,22.27,2 
DISL,ioos:station:DISL:KATA:1,2011-04-21T09:30:00Z,30.2583,-88.2131,0.0,22.32,2 
DISL,ioos:station:DISL:KATA:1,2011-04-21T10:00:00Z,30.2583,-88.2131,0.0,22.37,2 
DISL,ioos:station:DISL:KATA:1,2011-04-21T10:30:00Z,30.2583,-88.2131,0.0,22.42,2 
DISL,ioos:station:DISL:KATA:1,2011-04-21T11:00:00Z,30.2583,-88.2131,0.0,22.48,2 
DISL,ioos:station:DISL:KATA:1,2011-04-21T11:30:00Z,30.2583,-88.2131,0.0,22.58,2 
DISL,ioos:station:DISL:KATA:1,2011-04-21T12:00:00Z,30.2583,-88.2131,0.0,22.64,2 
DISL,ioos:station:DISL:KATA:1,2011-04-21T12:30:00Z,30.2583,-88.2131,0.0,22.74,2 
DISL,ioos:station:DISL:KATA:1,2011-04-21T13:00:00Z,30.2583,-88.2131,0.0,22.8,2 
DISL,ioos:station:DISL:KATA:1,2011-04-21T13:30:00Z,30.2583,-88.2131,0.0,22.85,2 
DISL,ioos:station:DISL:KATA:1,2011-04-21T14:00:00Z,30.2583,-88.2131,0.0,22.9,2 
DISL,ioos:station:DISL:KATA:1,2011-04-21T14:30:00Z,30.2583,-88.2131,0.0,22.85,2 
DISL,ioos:station:DISL:KATA:1,2011-04-21T15:00:00Z,30.2583,-88.2131,0.0,22.83,2 
DISL,ioos:station:DISL:KATA:1,2011-04-21T15:30:00Z,30.2583,-88.2131,0.0,22.91,2 
DISL,ioos:station:DISL:KATA:1,2011-04-21T16:00:00Z,30.2583,-88.2131,0.0,22.93,2 
DISL,ioos:station:DISL:KATA:1,2011-04-21T16:30:00Z,30.2583,-88.2131,0.0,22.96,2 
DISL,ioos:station:DISL:KATA:1,2011-04-21T17:00:00Z,30.2583,-88.2131,0.0,23.0,2 
DISL,ioos:station:DISL:KATA:1,2011-04-21T17:30:00Z,30.2583,-88.2131,0.0,23.06,2 
DISL,ioos:station:DISL:KATA:1,2011-04-21T18:00:00Z,30.2583,-88.2131,0.0,23.1,2 
DISL,ioos:station:DISL:KATA:1,2011-04-21T18:30:00Z,30.2583,-88.2131,0.0,23.11,2 
DISL,ioos:station:DISL:KATA:1,2011-04-21T19:00:00Z,30.2583,-88.2131,0.0,23.1,2 
DISL,ioos:station:DISL:KATA:1,2011-04-21T19:30:00Z,30.2583,-88.2131,0.0,23.11,2 
DISL,ioos:station:DISL:KATA:1,2011-04-21T20:00:00Z,30.2583,-88.2131,0.0,23.11,2 
DISL,ioos:station:DISL:KATA:1,2011-04-21T20:30:00Z,30.2583,-88.2131,0.0,23.13,2 
DISL,ioos:station:DISL:KATA:1,2011-04-21T21:00:00Z,30.2583,-88.2131,0.0,23.12,2 
DISL,ioos:station:DISL:KATA:1,2011-04-21T21:30:00Z,30.2583,-88.2131,0.0,23.1,2 